Location: Henry Coe State Park
(37.1875°N, 121.5503°W)
Time: 17:01:09
(UTC-07:00)

Daily predictions for brighter satellites

Satellite Brightness Start Highest point End
(mag) Time Altitude Azimuth Time Altitude Azimuth Time Altitude Azimuth
Cosmos 2074 Rocket 4.3 20:35:30 10° N 20:41:34 50° E 20:47:37 10° SSE
Aureole 3 Rocket 3.7 20:38:43 10° S 20:44:46 54° E 20:49:07 10° NNE
PSLV R/B 3.3 20:42:31 10° WNW 20:45:38 66° NNE 20:48:44 10° E
Cosmos 2184 Rocket 4.3 20:41:08 10° N 20:47:20 53° E 20:53:24 10° SSE
Meteor 2-4 Rocket 4.0 20:42:42 10° SSE 20:48:08 50° E 20:53:44 10° NNE
GENESIS II 4.2 20:44:45 10° NNW 20:48:42 73° ENE 20:52:34 10° SE
Cosmos 1943 Rocket 3.9 20:44:56 10° NW 20:49:48 32° WSW 20:54:37 10° SSW
Hubble Space Telescope 2.8 20:48:46 10° S 20:50:11 11° SSE 20:51:35 10° SE
Cosmos 1437 4.1 20:48:35 10° SSW 20:51:40 43° WNW 20:54:46 10° N
Resurs 01 Rocket 2.2 20:47:29 10° S 20:51:52 62° W 20:56:16 10° NNW
Helios 1A 3.1 20:56:04 10° SSE 21:00:10 58° ENE 21:04:19 10° N
Cosmos 405 Rocket 3.2 20:57:20 10° SSW 21:01:04 63° W 21:04:54 10° N
Cosmos 2112 Rocket 4.2 20:57:46 10° SSW 21:02:58 77° WNW 21:08:11 10° NNE
SL-27 R/B 2.9 20:59:28 10° SSW 21:03:06 69° WNW 21:06:45 10° NNE
Cosmos 192 4.4 20:59:02 10° SSW 21:03:56 88° WNW 21:08:52 10° NNE
Tiangong 2 2.9 21:03:37 10° WNW 21:06:32 31° N 21:09:25 10° ENE
Cosmos 1441 Rocket 3.0 21:03:24 10° S 21:07:06 74° E 21:10:50 10° NNE
Spot 2 Rocket 4.3 21:02:50 10° S 21:07:43 51° W 21:12:38 10° NNW
Nadezhda 1 Rocket 4.1 21:03:14 10° S 21:09:31 69° E 21:15:54 10° NNE
Cosmos 1346 4.4 21:07:03 10° SSW 21:09:39 38° WNW 21:12:16 10° N
Helios 1B rocket 2.5 21:12:23 10° NNE 21:16:33 85° WNW 21:20:41 10° SSW
H-2A R/B 3.9 21:18:48 10° E 21:21:24 14° ENE 21:24:01 10° NNE
SAR-Lupe-4 3.5 21:20:05 10° SSE 21:23:37 88° W 21:27:13 10° NNW
Cosmos 1892 Rocket 4.1 21:26:07 14° SSE 21:29:28 38° E 21:33:34 10° NNE
Envisat 3.4 21:25:04 10° S 21:30:04 63° WSW 21:35:08 10° NNW
Meteor 1-23 Rocket 4.2 21:25:25 10° S 21:30:59 88° W 21:36:38 10° N
YAOGAN 6 2.5 21:28:48 17° SSE 21:31:20 68° ENE 21:34:50 10° N
Cosmos 2056 Rocket 3.7 21:26:25 10° N 21:31:29 56° ENE 21:35:02 19° SE
Cosmos 2154 Rocket 4.1 21:25:30 10° N 21:31:50 65° E 21:37:24 13° SSE
CZ-4B DEB 3.1 21:33:17 14° S 21:35:45 55° W 21:38:43 10° NNW
Okean 1-7 Rocket 4.0 21:32:31 10° SSW 21:36:56 67° W 21:41:27 10° N
Okean 2 3.3 21:33:00 10° S 21:37:04 83° E 21:41:10 10° N
Cosmos 2082 Rocket 2.5 21:33:51 10° S 21:39:11 44° ESE 21:44:32 10° NE
SAR-Lupe-1 4.4 21:36:51 14° S 21:39:52 63° WSW 21:43:26 10° NNW
Cosmos 1606 Rocket 3.6 21:38:04 10° N 21:42:21 60° E 21:44:53 23° SSE
Cosmos 2278 4.1 21:38:10 10° NNW 21:43:44 51° ENE 21:47:06 23° SE
Cosmos 1025 Rocket 3.5 21:39:42 10° SSW 21:43:55 61° W 21:48:09 10° N
Cosmos 405 3.9 21:43:23 10° NNW 21:46:49 47° W 21:49:40 14° SSW
COSMOS 2487 2.3 21:45:19 15° S 21:48:14 70° ESE 21:51:47 10° NNE
SPOT 5 3.4 21:46:34 25° ESE 21:48:23 36° ENE 21:52:22 10° N
Cosmos 1726 Rocket 3.5 21:46:56 10° N 21:51:13 62° E 21:53:21 28° SSE
SL-08 RB Rocket 4.4 21:54:26 27° ESE 21:56:04 37° ENE 22:00:11 10° N
ISS -0.4 21:56:00 10° NW 21:57:09 11° NNW 21:58:18 10° N
Cosmos 1656 4.1 21:52:06 10° N 21:57:21 45° ENE 21:59:55 27° ESE
Meteor 1-15 Rocket 4.4 21:53:07 10° NNW 21:58:40 71° W 22:03:05 16° S
Cosmos 1697 Rocket 3.6 21:53:49 10° N 21:58:53 33° ENE 22:01:23 23° ESE
OE (NEXTSAT) 4.3 21:57:34 10° WNW 22:01:09 80° SSW 22:02:02 48° SE
USA 245 3.7 22:02:07 25° NE 22:02:07 25° NE 22:03:32 10° N
Cosmos 1452 Rocket 4.0 21:58:13 10° N 22:03:15 44° ENE 22:05:21 30° ESE
Cosmos 2369 3.7 21:58:40 10° NNW 22:04:25 76° ENE 22:07:20 30° SSE
ERS-1 Rocket 3.1 22:01:27 21° S 22:04:47 72° WSW 22:09:49 10° NNW
Cosmos 839 Rocket 4.4 22:00:26 10° NNW 22:07:11 84° ENE 22:12:06 27° SSE
MetOp-A 4.1 22:04:05 26° SSE 22:07:13 88° ENE 22:12:36 10° NNW
Cosmos 2341 Rocket 4.0 22:01:36 10° N 22:08:00 90° W 22:12:19 22° S
Timation 2 Rocket 4.2 22:04:58 21° S 22:09:03 48° ESE 22:14:57 10° NE
OAO 2 Rocket 3.7 22:06:33 10° W 22:11:16 45° SSW 22:12:33 37° SSE
Cosmos 2058 Rocket 3.0 22:07:02 10° N 22:11:28 78° E 22:13:06 39° SSE
Cosmos 1833 Rocket 2.6 22:06:13 10° SSW 22:11:49 80° ESE 22:17:28 10° NNE
SPOT 1/Viking Rocket 3.9 22:10:47 33° SE 22:12:42 50° ENE 22:17:41 10° N
MOS 1-B Rocket 4.0 22:10:14 25° S 22:13:49 84° WSW 22:20:22 10° NNW
Cosmos 2218 Rocket 4.2 22:10:00 10° N 22:16:01 52° E 22:18:29 34° SE
Cosmos 1437 Rocket 4.0 22:14:34 10° NNW 22:18:09 36° W 22:20:15 20° SSW
YAOGAN 11 4.0 22:17:13 41° S 22:18:41 87° WSW 22:23:03 10° NNW
Nimbus 7 Rocket 4.4 22:15:29 10° NNE 22:21:34 73° ESE 22:25:16 25° S
H-2A R/B 3.4 22:25:55 27° E 22:26:25 27° ENE 22:30:14 10° NNE
Cosmos 468 4.4 22:25:57 30° S 22:28:38 79° ESE 22:33:56 10° NNE
Cosmos 1812 Rocket 4.4 22:26:27 10° NNE 22:30:33 35° ENE 22:30:39 35° E
Hubble Space Telescope 3.2 22:27:32 10° SW 22:27:51 11° SW 22:27:51 11° SW
Cosmos 1066 Rocket 4.2 22:30:33 27° SSW 22:33:39 82° W 22:39:19 10° N
Cosmos 2181 Rocket 4.5 22:27:57 11° SSW 22:33:56 59° W 22:40:09 10° N
Cosmos 1626 Rocket 3.4 22:35:57 66° SSE 22:36:28 78° E 22:40:47 10° N
Cosmos 158 Rocket 4.0 22:38:28 51° SSE 22:39:34 63° ESE 22:44:53 10° NNE
Meteor 2-21 4.3 22:37:01 10° N 22:43:04 79° E 22:44:59 46° SSE
Tiangong 2 2.6 22:40:48 10° WNW 22:43:44 32° N 22:43:45 32° N
USA 229 DEB 4.3 22:37:13 10° NNW 22:44:11 51° NE 22:47:09 33° ESE
USA 229 4.3 22:37:19 10° NNW 22:44:16 50° NE 22:47:15 33° ESE
ARGOS 3.6 22:43:52 33° SSW 22:46:06 54° W 22:51:25 10° NNW
Cosmos 1953 4.3 22:44:46 10° NNE 22:46:52 18° ENE 22:46:52 18° ENE
Meteor 2-21 Rocket 4.4 22:41:56 10° N 22:47:59 69° E 22:49:30 50° SE
Cosmos 1980 Rocket 2.5 22:42:44 10° NNW 22:48:15 51° ENE 22:49:22 44° E
Cosmos 2228 3.9 22:44:30 10° NNW 22:48:35 44° W 22:49:34 37° SW
Cosmos 864 Rocket 4.4 22:46:19 10° N 22:52:37 87° E 22:54:30 48° S
Cosmos 1766 3.7 22:50:14 10° N 22:53:28 54° NNE 22:53:28 54° NNE
CZ-4B R/B 4.2 22:50:55 10° NNE 22:55:10 38° E 22:55:10 38° E
Landsat 7 3.7 22:57:46 73° S 22:58:13 86° WSW 23:03:01 10° NNW
Cosmos 2322 Rocket 3.7 22:55:28 10° N 22:59:58 23° ENE 23:01:16 21° ENE
H-2A R/B 2.2 22:59:16 51° SSW 23:00:14 61° W 23:05:14 10° NNW
Meteor 1-21 4.2 23:06:06 57° SSW 23:07:20 87° W 23:13:07 10° N
Meteor 1-4 Rocket 4.0 23:04:07 10° NNW 23:06:54 33° WNW 23:06:54 33° WNW
Lacrosse 5 rocket 3.9 23:05:54 10° N 23:08:58 17° NNE 23:10:52 14° ENE
Terra 1.7 23:13:16 87° W 23:13:16 87° W 23:18:02 10° NNW
Cosmos 2366 rocket 4.4 23:11:53 10° NNW 23:17:50 54° W 23:19:40 40° SW
Cosmos 1805 4.3 23:18:42 10° N 23:21:22 41° N 23:21:22 41° N
Cosmos 2082 Rocket 4.2 23:18:51 10° WSW 23:23:26 25° WNW 23:28:01 10° N
deb Chang Zheng 4 4.1 23:25:13 10° N 23:29:07 56° NW 23:29:07 56° NW
Meteor 2-8 Rocket 4.3 23:29:46 72° S 23:30:29 87° E 23:36:40 10° N
Cosmos 1758 4.5 23:27:02 10° N 23:29:39 39° N 23:29:39 39° N
Cosmos 1331 Rocket 4.5 23:30:28 10° N 23:35:07 49° NE 23:35:07 49° NE
Spot 4 4.0 23:39:52 68° N 23:39:52 68° N 23:44:05 10° NNW
Cosmos 1110 Rocket 4.2 23:34:21 10° NNW 23:39:08 61° NE 23:39:08 61° NE
Lacrosse 5 2.5 23:43:44 47° NE 23:43:44 47° NE 23:47:20 10° NE
Cosmos 1697 Rocket 3.9 23:37:53 10° NW 23:42:43 30° WSW 23:43:07 30° WSW
SeaSat 1 4.2 23:50:22 21° ENE 23:50:56 21° NE 23:54:35 10° N
ATLAS CENTAUR R/B 3.3 23:49:17 10° NNW 23:51:01 24° N 23:51:01 24° N
SL-16 R/B 2.4 23:47:50 10° NNW 23:53:16 61° NE 23:53:16 61° NE
